Weather History for KFFT - December, 2013

Change the Weather History Date:

Wednesday, December 4, 2013

  Actual Average Record
Temperature  
Mean Temperature 56 °F 39 °F  
Max Temperature 67 °F 48 °F 78 °F (1982)
Min Temperature 44 °F 29 °F 9 °F (1942)
Degree Days  
Heating Degree Days 9 26  
Month to date heating degree days 74 103  
Since 1 July heating degree days 1117 1014  
Cooling Degree Days 0 0  
Month to date cooling degree days 0 0  
Year to date cooling degree days 1127 1155  
Growing Degree Days 6 (Base 50)    
Moisture  
Dew Point 53 °F    
Average Humidity 87    
Maximum Humidity 100    
Minimum Humidity 73    
Precipitation  
Precipitation T in 0.13 in 2.30 in (1978)
Month to date precipitation T 0.56  
Year to date precipitation 45.22 42.17  
Sea Level Pressure  
Sea Level Pressure 29.81 in    
Wind  
Wind Speed 8 mph (SSE)    
Max Wind Speed 15 mph    
Max Gust Speed 21 mph    
Visibility 8 miles    
Events Rain    
T = Trace of Precipitation, MM = Missing Value Source: NWS Daily Summary

Daily Weather History Graph

Daily Weather History Graph

Search for Another Location

Airport or City:

Trip Planner

Search our weather history database for the weather conditions in past years. The results will help you decide how hot, cold, wet, or windy it might be!

Date:

Astronomy

Dec. 04, 2013 Rise Set
Actual Time 7:40 AM EST 5:19 PM EST
Civil Twilight 7:11 AM EST 5:48 PM EST
Nautical Twilight 6:38 AM EST 6:21 PM EST
Astronomical Twilight 6:06 AM EST 6:53 PM EST
Moon 9:08 AM EST (12/4) 7:28 PM EST (12/4)
Length of Visible Light 10h 37m
Length of Day
9h 39m
Waxing Crescent, 4% of the Moon is Illuminated
Dec 4
Waxing Crescent
Dec 9
First Quarter
Dec 17
Full
Dec 25
Last Quarter
Jan 1
New

Hourly Weather History & Observations

Time (EST) Temp. Dew Point Humidity Pressure Visibility Wind Dir Wind Speed Gust Speed Precip Events Conditions
12:53 AM 48.9 °F 46.9 °F 93% 29.83 in 7.0 mi SE 3.5 mph - N/A   Overcast
1:53 AM 46.9 °F 46.0 °F 97% 29.82 in 6.0 mi SE 4.6 mph - N/A   Scattered Clouds
2:20 AM 48.2 °F 46.4 °F 93% 29.82 in 6.0 mi SSE 5.8 mph - N/A   Mostly Cloudy
2:53 AM 48.9 °F 48.0 °F 97% 29.83 in 6.0 mi SSE 4.6 mph - N/A   Overcast
3:53 AM 50.0 °F 48.9 °F 96% 29.85 in 6.0 mi SSE 3.5 mph - N/A   Overcast
4:53 AM 50.0 °F 48.9 °F 96% 29.85 in 7.0 mi SSE 5.8 mph - N/A   Overcast
5:14 AM 50.0 °F 48.2 °F 94% 29.84 in 7.0 mi SE 4.6 mph - N/A   Overcast
5:53 AM 51.1 °F 48.9 °F 92% 29.84 in 7.0 mi SE 5.8 mph - N/A   Overcast
6:53 AM 52.0 °F 50.0 °F 93% 29.84 in 7.0 mi SSE 5.8 mph - N/A   Overcast
7:16 AM 53.6 °F 51.8 °F 94% 29.84 in 7.0 mi SSE 5.8 mph - N/A   Overcast
7:53 AM 53.1 °F 51.1 °F 93% 29.85 in 6.0 mi SSE 4.6 mph - N/A   Overcast
8:10 AM 53.6 °F 51.8 °F 94% 29.85 in 6.0 mi SE 6.9 mph - N/A   Overcast
8:23 AM 53.6 °F 51.8 °F 94% 29.85 in 6.0 mi SSE 6.9 mph - N/A   Overcast
8:49 AM 53.6 °F 51.8 °F 94% 29.85 in 4.0 mi SE 6.9 mph - 0.00 in Rain Light Rain
8:53 AM 54.0 °F 52.0 °F 93% 29.85 in 5.0 mi SSE 6.9 mph - 0.00 in Rain Light Rain
9:53 AM 55.9 °F 54.0 °F 93% 29.85 in 5.0 mi SSE 5.8 mph - 0.00 in   Overcast
10:29 AM 57.2 °F 55.4 °F 94% 29.85 in 7.0 mi SSE 10.4 mph - N/A   Overcast
10:53 AM 57.9 °F 55.0 °F 90% 29.85 in 8.0 mi SSE 10.4 mph - N/A   Overcast
11:04 AM 57.2 °F 55.4 °F 94% 29.85 in 8.0 mi SSE 9.2 mph - N/A   Overcast
11:53 AM 62.1 °F 57.0 °F 84% 29.81 in 10.0 mi SSE 11.5 mph - N/A   Mostly Cloudy
12:09 PM 62.6 °F 57.2 °F 82% 29.80 in 10.0 mi SSE 11.5 mph - N/A   Overcast
12:32 PM 62.6 °F 57.2 °F 82% 29.80 in 10.0 mi SSE 9.2 mph - N/A   Overcast
12:53 PM 63.0 °F 57.0 °F 81% 29.78 in 10.0 mi SSE 10.4 mph - N/A   Overcast
1:14 PM 62.6 °F 57.2 °F 82% 29.78 in 10.0 mi SSE 8.1 mph - N/A   Overcast
1:40 PM 64.4 °F 57.2 °F 77% 29.76 in 10.0 mi SSE 12.7 mph - N/A   Overcast
1:53 PM 64.9 °F 57.9 °F 78% 29.75 in 10.0 mi SSE 12.7 mph - N/A   Overcast
2:53 PM 66.0 °F 57.0 °F 73% 29.74 in 10.0 mi South 9.2 mph - N/A   Overcast
3:53 PM 66.0 °F 57.0 °F 73% 29.73 in 10.0 mi South 6.9 mph - N/A   Scattered Clouds
4:53 PM 64.0 °F 55.9 °F 75% 29.73 in 10.0 mi SSE 5.8 mph - N/A   Clear
5:53 PM 63.0 °F 55.9 °F 78% 29.74 in 10.0 mi South 9.2 mph - N/A   Clear
6:53 PM 63.0 °F 55.0 °F 75% 29.75 in 10.0 mi SSE 9.2 mph - N/A   Clear
7:53 PM 62.1 °F 55.0 °F 78% 29.76 in 10.0 mi South 9.2 mph - N/A   Clear
8:53 PM 63.0 °F 55.9 °F 78% 29.76 in 10.0 mi South 10.4 mph 20.7 mph N/A   Clear
9:53 PM 62.1 °F 55.0 °F 78% 29.78 in 10.0 mi South 9.2 mph - N/A   Clear
10:53 PM 59.0 °F 54.0 °F 83% 29.81 in 10.0 mi SSW 4.6 mph - N/A   Clear
11:53 PM 64.9 °F 57.0 °F 75% 29.81 in 10.0 mi SSW 11.5 mph 18.4 mph N/A   Mostly Cloudy